Showing default

QIANFAN-107, 66049

Orbit data source: Space-Track

QIANFAN-107, 66049 is a Chinese payload satellite in LEO that was launched on Fri, 17 Oct 2025 UTC via a CHANG ZHENG 6A launch vehicle from the Taiyaun Space Center, China (TSC). Payload-class satellites include a variety of spacecraft equipped with specific instruments for various scientific and technological missions. These include communications satellites like Starlink; space stations such as the ISS; scientific satellites like the Hubble; Earth observation satellites from companies like Planet Labs, Umbra, and HawkEye 360; GPS; miniature CubeSats for education and research; and military/defense satellites.

Loading next visibility...
Identifier
66049, 2025-233S
Orbit
LEO
Country
Flag of CNCN / PRC
Related business
Manufacturer
SECM
Mission
Operational Commercial Communications
Bus & Motor
QIANFAN, Unknown motor
Mass
267 kg wet, ~267 kg dry
Launch date (UTC)
2025-10-17 (7 months ago)
Launch vehicle
CHANG ZHENG 6A
Launch site
Taiyaun Space Center, China (TSC)
Object type
Payload
Rocket body
Debris
Shape & HBR
Box + 1 Pan, 14.5 m
Radar Cross Section
13.200 m²

Expand to show TLE details & history
Last TLE update: 7 hours ago

TLE from 7 hours ago
0 QIANFAN-107
1 66049U 25233S   26130.20492147  .00000133  00000-0  18751-3 0  9993
2 66049  89.0029  47.0182 0002353  71.6386 288.5021 13.51015021 28062
Epoch: 2026-05-10T04:55Z
TLE epoch observation values (Epoch: 2026-05-10T04:55:05.215Z)
Latitude
0.00001°
Longitude
105.23512°
Altitude
1,070.924 km
Speed
7.317 km/s
True Right ascension
03h 08m 04s
True Declination
0° 00' 00"
Sunlit
Object was in daylight at epoch
Visualization orbit readout
Latitude
Unknown
Longitude
Unknown
Altitude
Unknown
Speed
Unknown
Apparent Right ascension
Unknown
Apparent Declination
Unknown
Sunlit
N/A
Visualization observer readout
Local Sidereal Time
19:44:30
Azimuth
Unknown
Elevation
Unknown
Doppler factor
Unknown
Orbital elements
Apogee altitude
1,067.329 km
Perigee altitude
1,063.826 km
Semi-major axis
7,443.714 km
Eccentricity
0.00024
Inclination
89.0029°
RAAN
47.0182°
Arg. of periapsis
71.6386°
True anomaly
288.47653°
Mean anomaly
288.5021°
Eccentric anomaly
288.48931°
Mean motion
3.37955 °/min
Orbital period
106.52 mins
BSTAR
0.00018751
Loading maneuver chart data...
Computing Atmospheric mass density...
Loading historical data...
Loading historical data...
Loading historical data...
Loading historical data...
Loading historical data...
Loading historical data...
Loading historical data...

Documentation

Showing up to 5 results
|